Date,TemperatureHighF,TemperatureAvgF,TemperatureLowF,DewpointHighF,DewpointAvgF,DewpointLowF,HumidityHigh,HumidityAvg,HumidityLow,PressureMaxIn,PressureMinIn,WindSpeedMaxMPH,WindSpeedAvgMPH,GustSpeedMaxMPH,PrecipitationSumIn
2012-4-11,-200.0,0.0,200.0,-99.9,-99.9,-99.9,0,0,100,30.25,30.20,11,8,14,0.00
2012-4-12,46.0,6.2,44.0,39.0,-80.7,-99.9,82,11,71,30.22,30.15,14,10,20,0.00
2012-4-13,69.0,30.0,49.0,36.0,-35.8,-99.9,59,16,22,30.17,29.88,19,11,29,0.00
2012-4-14,81.0,28.5,56.0,51.0,-43.9,-99.9,66,15,27,29.88,29.59,21,13,36,0.00
2012-4-15,-200.0,0.0,200.0,-99.9,-99.9,-99.9,0,0,100,29.71,29.40,13,-10,18,0.00
2012-4-16,-200.0,0.0,200.0,-99.9,-99.9,-99.9,0,0,100,30.07,29.23,52,23,67,0.00
2012-4-17,-200.0,0.0,200.0,-99.9,-99.9,-99.9,0,0,100,30.35,30.07,31,15,37,0.00
2012-4-18,57.0,27.0,51.0,51.0,-24.2,-99.9,91,43,75,29.88,29.69,25,15,42,0.00
2012-4-19,46.0,3.2,44.0,42.0,-89.7,-99.9,91,6,86,30.07,29.90,26,15,32,0.00
2012-4-20,47.0,13.3,43.0,41.0,-58.7,-99.9,90,24,77,30.06,29.90,25,18,29,0.00
2012-4-21,44.0,17.8,42.0,38.0,-43.2,-99.9,84,32,73,30.10,30.04,25,12,29,0.00
2012-4-22,50.0,15.5,45.0,43.0,-53.4,-99.9,87,26,76,30.20,30.08,17,10,19,0.00
2012-4-23,50.0,8.0,46.0,39.0,-77.2,-99.9,68,11,61,30.14,29.75,26,14,32,0.00
2012-4-24,56.0,12.1,49.0,41.0,-67.4,-99.9,72,14,45,29.76,29.65,32,17,35,0.00
2012-4-25,51.0,4.7,49.0,41.0,-86.9,-99.9,72,6,57,29.74,29.67,19,10,21,0.00
2012-4-26,45.0,3.0,45.0,36.0,-91.0,-99.9,71,4,66,30.13,29.70,41,23,49,0.00
2012-4-27,48.0,5.4,44.0,39.0,-84.1,-99.9,77,8,61,30.28,30.13,23,13,26,0.00
2012-4-28,49.0,5.2,44.0,39.0,-84.2,-99.9,72,8,66,30.27,30.22,16,10,20,0.00
2012-4-29,-200.0,0.0,200.0,-99.9,-99.9,-99.9,0,0,100,30.32,30.13,16,10,24,0.00
2012-4-30,-200.0,0.0,200.0,-99.9,-99.9,-99.9,0,0,100,30.13,29.86,13,9,23,0.00
2012-5-1,-200.0,0.0,200.0,-99.9,-99.9,-99.9,0,0,100,29.91,29.85,11,9,17,0.00
2012-5-3,48.0,47.3,47.0,-99.9,-99.9,-99.9,0,0,100,29.96,29.89,33,26,39,0.00
2012-5-4,47.0,45.2,44.0,-99.9,-99.9,-99.9,0,0,100,30.13,29.95,29,24,39,0.00
2012-5-5,50.0,48.9,48.0,43.0,41.7,40.0,81,76,72,30.11,30.10,12,9,14,0.00
2012-5-6,56.0,50.5,48.0,51.0,45.1,-99.9,99,85,57,30.12,30.03,11,7,16,0.00
2012-5-7,60.0,52.0,49.0,58.0,-38.9,-99.9,99,38,87,30.03,29.81,15,8,23,0.00
2012-5-8,52.0,49.0,47.0,50.0,-55.4,-99.9,99,28,84,29.84,29.76,26,13,31,0.00
2012-5-9,54.0,49.7,47.0,46.0,44.2,38.0,96,82,55,29.93,29.83,29,20,34,0.00
2012-5-10,67.0,53.2,39.0,48.0,39.6,32.0,92,64,28,29.94,29.87,13,10,17,0.00
2012-5-11,84.0,65.8,49.0,55.0,48.0,45.0,86,57,29,30.07,29.84,35,13,42,0.00
2012-5-12,65.0,53.0,55.0,53.0,30.4,-99.9,86,56,31,30.26,30.07,19,11,26,0.00
2012-5-13,78.0,40.5,59.0,51.0,-16.5,-99.9,64,23,26,30.22,29.95,15,10,26,0.00
2012-5-14,78.0,33.7,60.0,51.0,-26.5,-99.9,66,25,34,29.97,29.85,14,10,21,0.00
2012-5-15,85.0,16.8,65.0,58.0,-64.9,-99.9,66,11,35,29.97,29.59,41,16,52,0.00
2012-5-16,-200.0,0.0,200.0,-99.9,-99.9,-99.9,0,0,100,30.14,29.97,27,11,34,0.00
2012-5-17,72.0,6.9,67.0,42.0,-86.3,-99.9,34,3,32,30.13,29.91,17,12,32,0.00
2012-5-18,86.0,25.0,74.0,58.0,-53.1,-99.9,49,12,36,29.94,29.78,20,13,37,0.00
2012-5-19,95.0,40.2,76.0,62.0,-28.3,-99.9,48,17,28,29.92,29.82,21,13,40,0.00
2012-5-20,94.0,32.3,81.0,68.0,-40.4,-99.9,54,16,39,29.94,29.69,50,15,64,0.00
2012-5-21,-200.0,0.0,200.0,-99.9,-99.9,-99.9,0,0,100,30.16,29.94,31,16,40,0.00
2012-5-22,-200.0,0.0,200.0,-99.9,-99.9,-99.9,0,0,100,30.12,29.88,19,11,26,0.00
2012-5-23,-200.0,0.0,200.0,-99.9,-99.9,-99.9,0,0,100,29.90,29.63,23,12,42,0.00
2012-5-24,-200.0,0.0,200.0,-99.9,-99.9,-99.9,0,0,100,29.66,29.36,29,16,50,0.00
2012-5-25,-200.0,0.0,200.0,-99.9,-99.9,-99.9,0,0,100,30.09,29.39,26,13,42,0.00
2012-5-26,-200.0,0.0,200.0,-99.9,-99.9,-99.9,0,0,100,30.20,29.98,26,11,32,0.00
2012-5-27,-200.0,0.0,200.0,-99.9,-99.9,-99.9,0,0,100,30.14,29.71,19,11,37,0.00
2012-5-28,91.0,13.1,65.0,71.0,-74.1,-99.9,80,9,48,29.76,29.52,29,11,40,0.00
2012-5-29,67.0,3.7,65.0,54.0,-91.3,-99.9,67,4,62,29.79,29.58,28,10,34,0.00
2012-5-30,-200.0,0.0,200.0,-99.9,-99.9,-99.9,0,0,100,30.00,29.77,25,17,31,0.00
2012-5-31,59.0,6.5,56.0,48.0,-83.6,-99.9,69,7,59,30.07,29.97,12,9,14,0.00
2012-6-1,-200.0,0.0,200.0,-99.9,-99.9,-99.9,0,0,100,30.00,29.69,13,8,15,0.00
2012-6-2,-200.0,0.0,200.0,-99.9,-99.9,-99.9,0,0,100,29.70,29.50,33,18,42,0.00
2012-6-3,66.0,28.5,57.0,56.0,-29.2,-99.9,85,35,68,29.84,29.59,18,10,20,0.00
2012-6-4,66.0,30.5,58.0,57.0,-23.9,-99.9,87,39,71,30.00,29.84,11,8,14,0.00
2012-6-5,63.0,12.9,60.0,58.0,-67.3,-99.9,87,17,80,30.09,30.00,19,10,23,0.00
2012-6-6,70.0,31.9,64.0,59.0,-25.2,-99.9,82,33,51,30.11,30.04,13,9,16,0.00
2012-6-7,73.0,33.5,65.0,59.0,-23.0,-99.9,75,33,57,30.09,29.96,13,9,15,0.00
2012-6-8,79.0,41.7,66.0,75.0,-12.9,-99.9,99,45,66,29.95,29.71,27,10,31,0.00
2012-6-9,89.0,74.3,70.0,73.0,30.2,-99.9,99,62,57,29.73,29.67,17,10,27,0.00
2012-6-10,97.0,82.2,67.0,71.0,63.0,-99.9,96,59,35,29.81,29.71,18,12,35,0.00
2012-6-11,90.0,51.8,78.0,72.0,2.8,-99.9,76,36,45,29.73,29.58,19,13,36,0.00
2012-6-12,-200.0,0.0,200.0,-99.9,-99.9,-99.9,0,0,100,30.11,29.68,37,18,47,0.00
2012-6-13,76.0,8.3,71.0,52.0,-83.0,-99.9,51,5,39,30.17,30.05,17,12,29,0.00
2012-6-14,-200.0,0.0,200.0,-99.9,-99.9,-99.9,0,0,100,30.12,29.90,19,12,34,0.00
2012-6-15,81.0,9.8,70.0,72.0,-78.4,-99.9,89,10,61,30.01,29.92,15,10,26,0.00
2012-6-16,92.0,33.9,74.0,68.0,-33.9,-99.9,68,21,35,30.01,29.67,19,11,34,0.00
2012-6-17,81.0,23.5,69.0,64.0,-49.8,-99.9,81,19,47,29.74,29.64,20,12,31,0.00
2012-6-18,82.0,40.2,75.0,76.0,-10.3,-99.9,96,45,79,29.67,29.47,19,12,32,0.00
2012-6-19,78.0,70.3,63.0,76.0,7.1,-99.9,100,60,78,29.88,29.61,17,9,28,0.00
2012-6-20,97.0,80.0,62.0,78.0,57.1,-99.9,99,68,48,29.82,29.64,26,13,54,0.00
2012-6-21,75.0,71.9,69.0,70.0,19.5,-99.9,97,53,52,29.86,29.64,19,11,25,0.00
2012-6-22,80.0,55.5,63.0,65.0,25.5,-99.9,83,54,51,29.96,29.87,15,9,21,0.00
2012-6-23,85.0,56.8,63.0,67.0,22.2,-99.9,97,50,41,29.97,29.91,19,11,29,0.00
2012-6-24,71.0,67.8,63.0,70.0,42.7,-99.9,100,74,66,30.08,29.89,21,13,26,0.00
2012-6-25,73.0,57.7,56.0,62.0,35.5,-99.9,89,62,54,30.16,30.05,24,10,26,0.00
2012-6-26,79.0,33.6,71.0,63.0,-26.9,-99.9,71,29,50,30.06,29.85,12,9,19,0.00
2012-6-27,90.0,51.1,70.0,72.0,2.3,-99.9,72,35,49,29.86,29.61,19,11,32,0.00
2012-6-28,84.0,57.7,71.0,72.0,24.8,-99.9,92,54,43,29.75,29.65,15,9,21,0.00
2012-6-29,86.0,41.4,78.0,67.0,-18.4,-99.9,63,26,43,29.74,29.65,19,13,26,0.00
2012-6-30,80.0,25.3,72.0,68.0,-45.2,-99.9,81,23,60,29.85,29.66,14,10,21,0.00
2012-7-1,81.0,37.0,74.0,71.0,-19.2,-99.9,85,36,60,29.94,29.84,11,9,14,0.00
2012-7-2,97.0,41.5,77.0,73.0,-22.6,-99.9,78,23,37,29.95,29.79,18,10,27,0.00
2012-7-3,90.0,39.6,79.0,73.0,-20.1,-99.9,82,30,52,29.88,29.67,19,10,42,0.00
2012-7-4,80.0,35.7,75.0,74.0,-20.1,-99.9,89,40,79,29.96,29.71,25,-4,39,0.00
2012-7-5,96.0,68.8,74.0,80.0,46.3,-99.9,97,66,54,29.88,29.74,24,10,41,0.00
2012-7-6,88.0,33.5,73.0,72.0,-28.3,-99.9,86,30,46,30.02,29.88,27,11,32,0.00
2012-7-7,79.0,51.8,69.0,71.0,17.8,-99.9,98,59,74,30.07,29.97,17,10,22,0.00
2012-7-8,78.0,48.7,68.0,72.0,10.0,-99.9,93,53,74,30.09,30.02,15,10,23,0.00
2012-7-9,81.0,45.5,67.0,67.0,2.1,-99.9,97,47,62,30.10,30.04,19,10,24,0.00
2012-7-10,80.0,42.8,67.0,69.0,-6.7,-99.9,97,40,65,30.16,30.08,11,9,14,0.00
2012-7-11,90.0,57.8,70.0,74.0,17.0,-99.9,76,42,43,30.12,30.00,18,10,24,0.00
2012-7-12,96.0,65.7,73.0,72.0,27.6,-99.9,73,41,31,30.06,29.98,14,10,25,0.00
2012-7-13,96.0,44.6,77.0,69.0,-17.7,-99.9,66,23,39,30.03,29.92,17,11,29,0.00
2012-7-14,93.0,24.8,80.0,74.0,-51.2,-99.9,78,17,47,29.94,29.88,16,10,24,0.00
2012-7-15,80.0,38.3,74.0,77.0,-29.2,-99.9,99,37,83,30.00,29.92,14,9,17,0.00
2012-7-16,96.0,61.4,70.0,78.0,8.7,-99.9,99,42,50,29.97,29.57,16,9,29,0.00
2012-7-17,81.0,75.1,72.0,76.0,71.9,69.0,99,90,73,29.93,29.61,28,17,34,0.00
2012-7-18,77.0,71.8,63.0,71.0,59.6,-99.9,99,78,57,30.02,29.92,16,11,26,0.00
2012-7-19,76.0,72.0,66.0,69.0,65.0,61.0,95,79,70,30.07,29.97,14,10,17,0.00
2012-7-20,90.0,75.2,60.0,68.0,39.0,-99.9,100,55,43,30.13,29.93,15,-11,30,0.00
2012-7-21,85.0,77.2,68.0,75.0,67.2,-99.9,96,73,57,29.99,29.85,20,11,27,0.00
2012-7-22,90.0,53.2,67.0,77.0,9.8,-99.9,85,43,45,30.00,29.82,15,11,24,0.00
2012-7-23,90.0,82.1,75.0,78.0,74.1,72.0,93,77,56,29.91,29.73,29,0,34,0.00
2012-7-24,85.0,73.0,70.0,73.0,58.5,-99.9,95,69,50,30.01,29.90,17,10,20,0.00
2012-7-25,81.0,49.5,66.0,73.0,-6.0,-99.9,99,48,73,29.93,29.55,17,11,32,0.00
2012-7-26,76.0,72.7,71.0,72.0,68.7,67.0,96,87,78,29.78,29.57,18,12,24,0.00
2012-7-27,77.0,72.7,69.0,69.0,65.9,61.0,89,80,65,30.03,29.78,19,13,26,0.00
2012-7-28,79.0,67.9,55.0,67.0,61.3,55.0,100,81,61,30.12,30.03,12,10,14,0.00
2012-7-29,91.0,77.3,63.0,75.0,67.5,61.0,94,74,46,30.06,29.86,16,10,26,0.00
2012-7-30,93.0,79.0,73.0,76.0,70.5,-99.9,93,78,50,29.90,29.70,26,6,32,0.00
2012-7-31,78.0,73.3,64.0,73.0,68.2,62.0,96,84,74,29.95,29.80,30,18,37,0.00
2012-8-1,93.0,79.8,63.0,69.0,65.4,62.0,96,65,41,29.93,29.69,16,11,30,0.00
2012-8-2,85.0,76.8,69.0,74.0,70.3,65.0,90,81,69,29.90,29.66,18,12,26,0.00
2012-8-3,77.0,71.3,62.0,73.0,67.6,61.0,98,88,78,29.97,29.90,13,9,17,0.00
2012-8-4,91.0,79.0,68.0,76.0,54.4,-99.9,99,72,55,29.92,29.70,19,11,31,0.00
2012-8-5,79.0,72.8,63.0,72.0,59.8,51.0,95,66,44,30.03,29.72,30,17,43,0.00
2012-8-6,90.0,70.6,61.0,66.0,58.7,54.0,82,67,43,30.05,29.82,13,10,20,0.00
2012-8-7,79.0,73.7,69.0,72.0,68.1,63.0,99,83,68,30.00,29.80,25,14,38,0.00
2012-8-8,74.0,68.8,60.0,65.0,62.7,59.0,97,81,72,30.06,30.00,15,9,19,0.00
2012-8-9,72.0,57.0,59.0,68.0,36.2,-99.9,99,71,75,30.03,29.98,21,12,33,0.00
2012-8-10,72.0,69.3,67.0,64.0,61.7,59.0,85,77,66,30.07,29.98,31,20,35,0.00
2012-8-11,76.0,71.5,61.0,66.0,62.7,57.0,89,74,61,29.99,29.94,29,18,34,0.00
2012-8-12,79.0,66.8,53.0,68.0,60.0,52.0,98,80,49,29.97,29.88,12,10,14,0.00
2012-8-13,82.0,71.8,65.0,70.0,64.8,60.0,91,79,59,29.90,29.86,11,9,15,0.00
2012-8-14,70.0,64.1,60.0,66.0,62.3,60.0,99,94,85,29.89,29.86,11,10,14,0.00
2012-8-28,74.0,53.2,66.0,62.0,18.8,-99.9,78,49,60,30.10,30.06,11,9,17,0.00
2012-8-29,91.0,48.8,63.0,72.0,-0.1,-99.9,83,38,42,30.07,29.84,14,10,23,0.00
2012-8-30,98.0,81.7,72.0,74.0,71.0,69.0,89,72,44,29.86,29.62,22,12,35,0.00
2012-8-31,85.0,74.9,66.0,72.0,63.1,-99.9,92,71,54,30.11,29.77,26,15,31,0.00
2012-9-1,82.0,35.3,63.0,71.0,-22.0,-99.9,89,35,66,30.20,30.10,12,10,16,0.00
2012-9-2,87.0,38.4,64.0,66.0,-23.7,-99.9,95,25,40,30.12,29.92,16,3,26,0.00
2012-9-3,85.0,50.1,72.0,80.0,5.2,-99.9,100,52,65,29.93,29.82,17,9,27,0.00
2012-9-4,89.0,75.0,68.0,80.0,-17.0,-99.9,96,39,58,29.89,29.75,16,9,31,0.00
2012-9-5,77.0,70.6,66.0,71.0,66.5,63.0,97,87,66,29.82,29.70,29,12,39,0.00
2012-9-6,81.0,69.4,61.0,67.0,62.0,58.0,97,79,48,29.86,29.76,15,10,22,0.00
2012-9-7,71.0,64.5,57.0,65.0,55.7,-99.9,99,87,75,29.87,29.78,21,10,37,0.00
2012-9-8,72.0,65.9,61.0,62.0,57.5,52.0,96,75,55,29.82,29.71,29,16,40,0.00
2012-9-9,73.0,66.8,56.0,61.0,56.8,52.0,92,71,58,30.09,29.84,24,0,30,0.00
2012-9-10,82.0,66.2,50.0,61.0,55.1,49.0,98,71,41,30.12,29.89,16,11,33,0.00
2012-9-11,88.0,75.3,64.0,67.0,61.2,57.0,81,63,43,29.90,29.76,18,13,35,0.00
2012-9-12,81.0,63.9,64.0,66.0,36.8,-99.9,74,52,36,30.13,29.79,28,13,34,0.00
2012-9-13,72.0,29.6,60.0,56.0,-32.7,-99.9,82,27,45,30.24,30.12,24,11,32,0.00
2012-9-14,70.0,39.4,58.0,59.0,-7.1,-99.9,84,42,61,30.29,30.21,31,17,39,0.00
2012-9-15,75.0,36.8,56.0,60.0,-16.0,-99.9,82,34,45,30.29,30.00,17,10,23,0.00
2012-9-16,88.0,52.0,63.0,69.0,12.3,-99.9,88,44,32,30.00,29.75,20,12,31,0.00
2012-9-17,69.0,57.3,61.0,65.0,43.0,-99.9,96,80,84,29.81,29.77,27,15,34,0.00
2012-9-27,67.0,59.2,48.0,53.0,49.3,46.0,96,71,53,30.27,30.15,13,9,20,0.00
2012-9-28,69.0,45.2,46.0,55.0,20.7,-99.9,96,66,51,30.16,30.05,12,9,18,0.00
2012-9-29,65.0,39.4,48.0,56.0,3.5,-99.9,99,57,70,30.08,30.03,14,11,18,0.00
2012-9-30,64.0,44.7,45.0,55.0,18.7,-99.9,99,64,64,30.06,29.91,18,9,24,0.00
2012-10-1,78.0,57.8,51.0,61.0,41.7,-99.9,98,70,37,29.92,29.73,28,13,36,0.00
2012-10-2,64.0,60.2,50.0,60.0,57.0,49.0,97,89,81,29.94,29.84,26,16,32,0.00
2012-10-3,71.0,58.3,49.0,62.0,21.2,-99.9,100,67,59,29.96,29.90,16,9,21,0.00
2012-10-4,78.0,63.3,54.0,62.0,53.7,38.0,98,75,36,29.95,29.68,24,12,34,0.00
2012-10-5,55.0,3.4,53.0,38.0,-91.3,-99.9,55,3,53,29.85,29.80,23,15,37,0.00
2012-10-6,52.0,10.8,47.0,44.0,-68.3,-99.9,88,17,61,30.08,29.80,44,23,55,0.00
2012-10-7,57.0,21.9,43.0,37.0,-46.2,-99.9,77,18,29,30.08,29.92,17,11,26,0.00
2012-10-8,63.0,20.9,53.0,38.0,-53.1,-99.9,45,14,33,29.92,29.63,19,12,38,0.00
2012-10-9,61.0,5.8,57.0,48.0,-85.7,-99.9,72,6,55,29.69,29.61,20,11,35,0.00
2012-10-10,-200.0,0.0,200.0,-99.9,-99.9,-99.9,0,0,100,29.97,29.67,24,13,40,0.00
2012-10-11,54.0,7.2,49.0,44.0,-80.3,-99.9,83,9,57,30.17,29.82,51,15,62,0.00
2012-10-12,56.0,16.8,49.0,39.0,-58.0,-99.9,66,15,38,30.39,30.17,37,13,45,0.00
2012-10-13,56.0,19.7,51.0,54.0,-44.0,-99.9,98,35,91,30.21,29.71,14,10,27,0.00
2012-10-14,56.0,53.7,51.0,55.0,51.2,48.0,98,91,81,29.76,29.53,45,20,52,0.00
2012-10-15,52.0,46.9,41.0,49.0,34.6,-99.9,92,75,68,29.89,29.60,42,28,55,0.00
2012-10-16,58.0,41.1,42.0,54.0,16.8,-99.9,97,70,85,29.87,29.50,16,11,32,0.00
2012-10-17,73.0,60.9,51.0,61.0,55.4,50.0,97,83,58,29.50,29.27,16,11,40,0.00
2012-10-18,64.0,59.4,50.0,62.0,56.7,48.0,97,91,81,29.46,29.12,21,12,42,0.00
2012-10-19,57.0,52.2,48.0,54.0,49.2,47.0,97,90,69,29.61,29.46,18,11,24,0.00
2012-10-20,63.0,54.2,45.0,56.0,50.2,-99.9,99,89,73,29.79,29.59,24,12,28,0.00
2012-10-21,66.0,52.7,41.0,50.0,37.5,-99.9,100,74,47,29.94,29.78,14,10,21,0.00
2012-10-22,60.0,54.9,51.0,56.0,52.4,49.0,97,92,80,30.04,29.94,22,12,26,0.00
2012-10-23,64.0,58.8,56.0,58.0,55.0,52.0,98,88,68,30.02,29.88,20,12,29,0.00
2012-10-24,68.0,63.5,58.0,65.0,61.8,57.0,98,94,89,29.90,29.67,17,11,29,0.00
2012-10-25,72.0,63.1,49.0,69.0,40.9,-99.9,99,82,83,29.76,29.42,37,15,50,0.00
2012-10-26,49.0,45.4,41.0,43.0,34.8,28.0,83,67,52,30.26,29.76,21,13,32,0.00
2012-10-27,48.0,41.4,33.0,35.0,29.7,23.0,87,64,39,30.31,30.23,21,11,28,0.00
2012-10-28,51.0,40.6,34.0,36.0,31.2,28.0,92,70,53,30.36,30.30,16,10,22,0.00
2012-10-29,49.0,43.0,32.0,40.0,34.9,30.0,94,74,57,30.35,30.21,24,14,37,0.00
2012-10-30,49.0,45.1,43.0,42.0,38.0,31.0,94,77,54,30.21,29.86,44,31,54,0.00
2012-10-31,46.0,44.0,41.0,43.0,41.5,39.0,95,91,86,29.86,29.74,44,36,54,0.00
2012-11-1,48.0,45.5,43.0,40.0,37.0,32.0,86,72,56,29.85,29.71,42,33,53,0.00
2012-11-2,45.0,42.0,40.0,40.0,37.0,33.0,95,83,72,30.14,29.84,39,27,50,0.00
2012-11-3,43.0,41.5,40.0,38.0,34.6,32.0,86,76,72,30.22,30.14,24,14,32,0.00
2012-11-4,45.0,42.0,39.0,39.0,35.2,31.0,87,77,69,30.23,30.19,21,15,27,0.00
2012-11-5,42.0,38.1,33.0,34.0,29.0,26.0,83,70,54,30.25,30.06,21,10,26,0.00
2012-11-6,47.0,40.2,32.0,42.0,34.3,28.0,97,80,64,30.06,29.84,15,9,26,0.00
2012-11-7,48.0,45.1,43.0,44.0,42.6,41.0,98,91,78,30.08,29.91,13,8,21,0.00
2012-11-8,52.0,45.9,40.0,44.0,40.7,39.0,98,83,65,30.07,29.91,16,10,27,0.00
2012-11-9,51.0,47.2,44.0,47.0,42.1,37.0,87,82,75,30.16,29.98,19,14,26,0.00
2012-11-10,54.0,47.4,44.0,53.0,44.9,38.0,100,91,77,30.15,29.74,16,10,28,0.00
2012-11-11,67.0,58.1,48.0,59.0,20.8,-99.9,99,70,75,29.74,29.55,20,12,34,0.00
2012-11-12,48.0,36.1,30.0,48.0,28.1,17.0,99,73,54,30.01,29.63,28,15,33,0.00
2012-11-13,44.0,35.6,30.0,29.0,26.0,22.0,79,69,47,30.33,30.01,17,11,30,0.00
2012-11-14,51.0,43.0,34.0,36.0,30.6,-99.9,73,63,48,30.34,30.20,15,10,29,0.00
2012-11-15,54.0,46.7,41.0,44.0,37.2,35.0,80,70,54,30.32,30.11,36,14,42,0.00
2012-11-16,45.0,39.6,32.0,35.0,30.4,27.0,89,70,61,30.50,30.32,24,11,32,0.00
2012-11-17,56.0,42.6,31.0,42.0,36.5,28.0,89,80,57,30.43,30.34,14,10,29,0.00
2012-11-18,60.0,49.3,43.0,45.0,41.7,40.0,90,76,50,30.35,30.19,17,12,32,0.00
2012-11-19,54.0,51.9,50.0,48.0,43.5,40.0,89,73,64,30.19,30.02,14,11,31,0.00
2012-11-20,56.0,49.8,47.0,49.0,46.8,45.0,95,89,70,30.12,30.00,20,9,24,0.00
2012-11-21,58.0,50.9,47.0,48.0,46.2,45.0,95,85,61,30.11,29.81,15,10,31,0.00
2012-11-22,69.0,56.4,50.0,49.0,47.4,46.0,88,73,48,29.82,29.46,20,12,37,0.00
2012-11-23,53.0,40.0,35.0,49.0,37.3,30.0,99,90,82,30.01,29.45,60,37,79,0.00
2012-11-24,36.0,32.1,28.0,32.0,26.1,21.0,94,79,67,30.09,29.85,45,18,57,0.00
2012-11-25,37.0,31.7,27.0,30.0,26.9,22.0,93,83,70,29.92,29.69,32,12,42,0.00
2012-11-26,32.0,29.1,25.0,25.0,21.3,17.0,78,72,65,30.23,29.90,20,14,32,0.00
2012-11-27,36.0,29.0,22.0,29.0,20.2,15.0,84,70,55,30.22,30.00,15,10,24,0.00
2012-11-28,36.0,30.3,22.0,30.0,20.4,15.0,85,67,53,30.20,30.00,33,14,41,0.00
2012-11-29,38.0,33.7,31.0,33.0,27.8,21.0,89,79,65,30.28,30.06,22,14,27,0.00
2012-11-30,33.0,29.9,26.0,28.0,24.5,19.0,87,80,73,30.30,30.21,14,9,24,0.00
2012-12-1,46.0,40.5,32.0,45.0,38.9,29.0,99,94,88,30.22,29.73,16,10,34,0.00
2012-12-2,48.0,45.3,43.0,46.0,40.5,-99.9,100,90,83,30.00,29.72,21,12,26,0.00
2012-12-3,61.0,50.8,43.0,61.0,49.2,41.0,99,94,75,29.97,29.51,21,14,36,0.00
2012-12-4,56.0,42.3,33.0,49.0,32.9,23.0,83,69,54,30.14,29.59,34,14,42,0.00
2012-12-5,38.0,35.2,32.0,31.0,26.2,23.0,84,70,56,30.38,30.09,39,16,49,0.00
2012-12-6,44.0,40.8,35.0,41.0,34.6,-99.9,95,82,72,30.10,29.69,18,13,39,0.00
2012-12-7,44.0,38.7,36.0,37.0,30.6,28.0,78,72,66,29.99,29.78,23,14,31,0.00
2012-12-8,37.0,35.3,32.0,32.0,29.1,23.0,91,78,67,30.12,29.95,22,15,29,0.00
2012-12-9,36.0,31.3,25.0,31.0,26.5,22.0,95,83,66,30.18,29.82,17,10,24,0.00
2012-12-10,36.0,32.9,31.0,34.0,27.6,24.0,95,81,71,29.84,29.70,24,12,30,0.00
2012-12-11,33.0,29.1,26.0,26.0,22.3,14.0,85,76,61,29.89,29.72,19,10,27,0.00
2012-12-12,43.0,29.5,20.0,33.0,20.3,13.0,80,68,53,30.12,29.88,18,11,34,0.00
2012-12-13,48.0,42.4,38.0,39.0,32.6,28.0,92,69,47,30.07,29.92,30,13,34,0.00
2012-12-14,38.0,36.1,35.0,35.0,30.8,29.0,90,81,77,30.20,30.07,25,11,29,0.00
2012-12-15,45.0,41.0,35.0,41.0,37.7,30.0,95,88,79,30.10,29.55,16,11,30,0.00
2012-12-16,44.0,42.0,40.0,44.0,41.3,39.0,99,97,95,29.56,29.47,17,8,20,0.00
2012-12-17,42.0,38.0,36.0,42.0,33.8,29.0,99,85,76,29.65,29.53,14,10,21,0.00
2012-12-18,39.0,36.0,33.0,31.0,29.5,28.0,88,77,67,29.73,29.64,11,8,16,0.00
2012-12-19,44.0,33.6,26.0,30.0,27.5,25.0,94,80,49,30.00,29.72,14,8,19,0.00
2012-12-20,40.0,35.9,29.0,39.0,34.4,27.0,99,94,90,30.00,29.50,37,18,49,0.00
2012-12-21,39.0,36.2,33.0,37.0,32.8,28.0,97,88,78,30.00,29.50,52,40,62,0.00
2012-12-22,36.0,31.7,27.0,30.0,26.0,22.0,86,79,69,30.02,29.80,39,14,47,0.00
2012-12-23,36.0,29.1,21.0,31.0,23.5,17.0,86,79,72,29.99,29.81,40,22,49,0.00
2012-12-24,32.0,27.4,20.0,25.0,21.4,16.0,87,78,72,30.05,29.90,28,13,33,0.00
2012-12-25,29.0,27.2,22.0,24.0,20.7,16.0,83,76,67,30.37,30.05,22,11,33,0.00
2012-12-26,34.0,29.3,23.0,29.0,23.0,17.0,83,77,68,30.36,30.15,24,12,33,0.00
2012-12-27,33.0,31.4,30.0,27.0,25.6,24.0,83,79,72,30.19,30.10,28,18,35,0.00
2012-12-28,34.0,32.5,31.0,30.0,26.8,25.0,89,79,73,30.11,29.96,24,13,30,0.00
2012-12-29,35.0,31.1,28.0,31.0,26.9,22.0,94,85,67,29.97,29.88,24,11,28,0.00
2012-12-30,31.0,26.5,19.0,23.0,18.2,14.0,83,71,55,30.09,29.78,14,9,30,0.00
2012-12-31,33.0,26.5,23.0,28.0,20.4,17.0,87,77,66,30.03,29.75,36,17,43,0.00
2013-1-1,27.0,21.5,14.0,21.0,11.9,5.0,91,67,45,30.08,29.91,28,14,35,0.00